Theta_e
313 313 313 314 314 318 322 325 322 320 322 316 317 319 317 319 320 321 320 320 321 320 319 320 319 319 319 319 320 319 319 319 320 319 320 322 320 318 319 318 319 319 320 333 336 333 335 336 336 336 334 337 339 338 338 338 338 338 337 337 337 335 333 332 331 328 326 322 319 318 318 319 319 319 320 322 329 329 326 326 326 329 329 328 328 330 333 331 329 327 325 324 323 323 324 324 323
314 314 314 316 318 323 326 325 321 317 318 314 317 319 317 320 320 320 320 320 320 320 319 320 319 319 319 319 320 320 319 319 319 319 321 322 323 320 318 319 318 320 321 333 339 333 336 338 335 335 333 334 337 338 338 338 337 337 336 336 336 333 332 331 330 328 326 322 318 318 318 319 319 319 320 321 328 329 328 327 326 329 329 328 329 332 334 333 330 328 325 323 320 320 323 325 325
317 317 317 320 322 325 326 323 320 316 315 314 315 318 319 320 319 319 319 320 320 320 319 319 319 319 320 321 319 320 320 319 320 320 322 323 325 321 317 319 318 321 322 334 340 335 336 339 335 334 334 335 336 337 337 338 337 336 335 335 334 332 330 330 330 328 326 323 318 318 319 320 320 321 321 322 327 329 328 327 328 329 330 329 330 332 334 333 331 328 324 321 318 318 319 320 321
318 319 319 323 325 324 324 323 320 316 314 314 315 317 320 319 318 319 319 320 319 319 320 320 320 319 320 320 319 320 320 320 319 320 324 320 319 319 317 319 318 321 323 332 340 337 337 338 335 334 335 336 337 336 337 337 337 336 335 335 334 332 330 330 329 327 326 323 319 318 319 321 321 322 322 324 327 328 327 327 326 327 330 330 330 332 333 333 332 330 326 323 322 322 322 321 319
319 320 319 323 327 324 323 321 320 318 315 315 315 317 319 318 318 318 319 320 319 320 319 320 320 319 320 320 320 320 319 320 320 320 324 321 317 317 318 318 319 321 323 330 339 340 338 336 334 334 335 336 337 337 337 337 337 336 335 335 335 333 330 329 328 328 326 323 320 319 319 321 323 324 324 327 328 326 326 326 326 325 328 330 331 332 331 332 333 331 329 328 328 328 327 326 324
318 320 319 321 325 323 322 318 318 318 318 319 317 317 318 318 318 318 319 319 319 319 318 320 319 319 320 319 319 319 318 319 321 320 321 320 317 317 317 318 319 321 323 329 338 340 338 336 333 333 335 336 337 337 337 337 337 336 336 336 336 335 331 328 328 328 327 323 320 319 320 322 324 326 326 328 328 326 326 326 325 325 326 328 330 331 329 330 331 329 328 326 326 326 325 325 323
318 322 322 322 323 322 323 318 317 318 318 321 318 318 318 318 319 319 319 319 319 318 318 319 319 319 318 318 318 318 318 318 320 319 318 318 316 316 317 318 319 321 324 328 337 339 336 336 333 332 335 336 337 337 336 336 337 336 337 336 335 335 332 327 327 329 329 328 325 320 320 322 325 328 328 327 327 327 328 326 325 324 325 326 328 330 329 329 328 326 323 320 317 316 315 315 315
317 323 324 324 323 322 322 319 320 319 318 319 319 319 319 319 319 319 319 318 319 318 318 318 318 318 318 319 320 318 317 317 318 317 318 318 316 316 316 317 318 321 324 328 335 335 331 332 331 331 335 335 336 337 336 335 336 337 337 336 335 335 333 328 328 330 332 333 332 325 321 323 328 330 329 328 327 326 328 327 326 327 326 327 328 329 328 327 325 322 319 315 311 308 308 308 309
318 321 323 324 323 320 319 319 320 320 318 319 319 319 318 318 318 319 319 318 318 318 318 317 318 317 318 319 321 318 316 316 316 316 317 317 316 315 316 317 318 319 322 325 331 333 327 329 330 330 333 334 335 336 336 335 335 335 336 335 334 334 333 329 330 332 333 334 333 329 324 325 330 331 330 329 328 327 327 327 328 329 329 329 329 328 326 323 321 319 320 315 308 306 307 308 308
321 320 323 324 320 318 317 318 320 319 319 319 319 319 318 318 318 319 318 319 318 318 318 317 318 317 318 319 319 317 315 314 315 315 316 316 316 315 316 316 317 318 320 322 328 332 326 325 330 329 330 332 334 336 336 336 335 335 335 334 333 333 332 330 330 331 333 333 332 330 327 327 330 331 331 330 328 327 327 327 328 328 328 329 327 324 322 320 318 320 322 316 307 306 308 309 309
321 319 321 322 318 316 315 317 319 320 319 318 319 318 318 317 318 319 318 319 318 318 318 317 319 317 317 319 318 316 314 315 314 315 315 316 315 315 315 316 316 316 319 320 322 326 325 324 328 329 330 331 332 334 336 337 336 335 335 335 334 334 332 330 329 330 332 333 331 329 328 329 332 332 333 332 330 329 329 329 330 329 328 328 325 323 321 320 320 321 323 316 307 306 308 309 309
321 319 319 319 318 317 317 318 319 320 319 318 319 318 317 317 318 319 318 319 318 318 318 317 317 317 318 318 318 316 314 315 314 314 314 315 315 315 315 315 316 315 317 318 319 322 324 325 326 327 329 330 330 332 334 337 336 335 335 335 335 334 333 331 328 329 330 331 331 330 330 331 332 333 332 331 330 330 330 329 330 331 329 329 328 327 326 325 324 324 324 317 308 305 307 308 308
320 320 318 318 319 320 318 319 320 319 319 319 319 317 316 317 318 318 318 319 318 318 317 316 316 317 318 318 318 316 315 314 314 314 314 314 315 315 315 314 315 315 316 316 317 318 320 322 326 329 329 328 330 330 332 335 336 335 335 335 335 334 333 331 328 327 329 330 329 330 330 330 331 332 331 330 329 329 329 328 328 330 330 331 330 330 330 328 327 326 324 318 310 305 306 307 306
320 320 319 319 319 319 318 319 319 318 318 319 318 318 317 317 317 317 318 318 318 317 316 316 316 317 317 317 317 316 316 314 314 314 314 314 314 315 315 315 314 315 315 315 316 316 317 318 323 329 330 330 330 331 331 333 335 336 335 335 334 334 333 331 329 327 327 328 329 328 328 328 330 330 330 329 328 327 327 326 326 327 329 330 330 331 330 329 328 326 324 319 311 305 305 305 304
319 320 319 319 317 317 319 320 319 317 318 319 318 317 317 317 317 317 317 317 317 317 315 316 316 316 317 317 317 316 315 314 314 314 314 314 314 314 315 316 315 315 315 315 315 315 316 316 318 323 328 332 332 332 332 332 333 334 335 335 335 335 334 332 330 328 327 327 328 328 328 327 327 328 328 329 327 326 327 327 327 327 327 327 327 327 327 327 326 325 324 318 311 306 304 304 303
317 319 320 317 316 316 317 320 319 317 318 319 317 317 318 317 316 317 317 316 317 317 316 316 315 315 315 315 315 314 314 314 314 313 314 314 314 314 315 316 316 316 315 315 315 316 316 316 316 317 320 329 333 333 332 332 333 333 334 334 335 335 335 333 331 329 327 327 327 328 328 327 326 326 327 328 328 327 328 329 329 328 326 326 325 324 324 324 322 323 323 318 313 309 304 303 303
315 320 319 316 316 316 316 318 318 318 318 319 317 318 318 318 317 317 316 316 316 317 316 315 314 314 314 314 313 313 314 314 314 313 313 313 314 315 314 315 316 316 316 315 315 315 316 316 317 317 316 320 328 333 332 332 333 333 333 332 334 335 335 335 333 330 328 328 327 327 328 327 327 327 327 327 328 328 328 329 330 329 327 326 325 324 324 322 322 323 323 320 317 312 306 303 302
319 321 318 316 316 316 317 318 319 319 319 318 318 317 318 318 318 317 316 316 317 317 315 314 314 313 313 313 313 313 313 313 313 313 313 313 314 314 314 314 315 316 316 316 315 315 315 316 316 317 317 317 320 327 329 330 332 332 332 331 332 333 334 334 334 332 329 329 328 327 327 327 328 329 328 328 328 328 328 328 329 330 329 329 325 323 324 323 324 324 322 321 319 315 309 305 303
320 320 317 317 317 316 318 319 319 319 319 318 318 317 317 317 317 316 316 317 318 317 316 314 314 314 313 312 312 312 312 312 312 312 313 313 313 313 313 314 314 315 315 315 316 315 315 315 316 316 317 317 317 320 323 325 328 331 331 331 331 331 332 333 334 333 332 330 330 329 328 328 329 330 330 330 329 328 328 328 329 330 331 329 324 322 323 324 325 323 322 321 320 316 311 308 305
320 320 319 318 317 316 317 319 318 318 318 318 318 316 316 317 316 316 316 317 318 317 316 315 316 315 313 311 311 311 311 311 312 312 312 312 313 313 313 314 314 314 314 315 315 316 315 315 315 315 316 316 317 318 319 320 323 328 330 330 331 332 332 332 333 333 333 332 331 331 329 330 330 330 330 330 329 328 329 328 328 330 330 328 324 322 322 323 325 324 322 321 320 317 313 311 309
320 319 319 318 316 317 316 317 318 317 317 317 317 316 316 317 315 316 316 317 317 316 314 313 314 313 311 311 310 311 311 311 311 312 312 312 313 313 313 313 313 314 313 314 314 314 315 316 315 315 315 316 317 317 319 322 323 327 331 329 329 332 333 332 333 333 333 332 332 331 330 331 331 330 330 329 328 328 329 329 328 329 330 328 324 324 324 324 326 326 325 323 322 321 317 315 314
319 318 319 318 317 318 317 317 317 316 316 316 317 316 316 316 315 316 316 317 317 314 311 311 311 310 310 310 310 311 311 311 311 312 312 313 313 313 313 313 313 313 313 313 313 314 314 315 315 315 315 315 317 318 321 326 326 327 331 332 330 330 331 333 333 334 333 332 332 331 330 332 332 331 331 331 329 328 329 330 330 330 330 329 326 325 325 325 326 327 326 326 325 324 322 320 319
319 318 318 318 317 318 317 317 316 315 315 316 316 316 315 316 316 316 315 316 314 311 310 310 309 309 309 310 310 311 311 311 312 312 313 313 313 313 313 313 313 313 313 313 313 313 313 314 314 314 315 316 317 318 323 328 328 328 331 332 332 331 331 332 332 332 332 332 333 332 331 332 332 331 331 330 329 329 329 330 330 330 330 330 327 327 326 325 326 327 327 327 326 325 324 323 322
318 319 318 318 317 317 317 316 315 314 315 316 315 315 315 316 316 315 314 313 311 310 309 309 309 309 309 310 310 311 311 311 312 312 312 313 313 313 313 313 313 313 313 313 313 313 313 314 313 313 314 314 316 319 324 328 329 330 330 330 331 331 331 331 331 333 333 333 332 332 331 331 331 331 330 330 330 330 330 329 330 331 330 328 328 329 327 325 326 327 327 326 326 325 324 324 323
318 318 318 317 316 316 316 316 315 315 315 315 314 314 316 316 315 314 314 311 310 310 309 309 309 309 309 309 310 311 311 311 312 312 312 312 313 312 313 313 313 313 313 313 313 313 313 314 313 314 313 313 318 321 325 328 329 330 330 328 329 329 329 330 333 335 335 334 332 330 330 330 331 331 331 330 331 330 329 328 329 330 329 327 328 328 327 325 325 326 327 326 326 326 325 324 323
317 317 317 317 317 316 316 316 316 315 315 315 314 315 316 314 314 313 312 310 309 309 309 309 309 309 309 309 310 310 311 311 311 312 312 312 312 312 312 312 312 312 313 313 313 313 314 314 313 314 313 314 321 324 326 328 329 330 330 329 329 328 329 330 332 334 332 331 329 328 329 330 331 331 331 330 329 330 330 328 329 330 328 327 328 327 326 326 327 328 327 326 326 326 324 324 323
316 317 316 317 317 317 316 316 317 316 315 315 314 317 316 313 313 313 311 309 309 309 309 309 309 309 309 309 310 310 310 310 311 311 311 312 312 312 312 312 312 312 313 313 313 314 315 315 314 314 313 316 324 326 327 328 329 329 330 330 330 328 328 328 331 332 329 328 327 325 327 330 332 331 331 330 329 330 330 329 329 329 328 328 328 327 326 325 327 327 325 324 326 325 324 323 323
315 316 316 317 317 317 317 317 317 315 315 314 314 316 315 312 313 314 311 308 309 310 310 309 309 309 309 309 309 309 310 310 310 311 311 311 311 311 311 311 312 312 312 313 314 315 315 315 315 314 313 317 324 326 326 327 327 328 328 329 329 327 327 326 329 331 329 329 328 326 325 327 330 331 331 331 330 330 331 330 330 329 328 328 327 326 326 324 323 323 322 325 326 324 324 323 322
315 315 316 318 318 318 318 317 315 315 315 313 314 315 314 313 313 313 310 309 309 310 310 309 309 308 308 309 308 309 309 309 310 310 310 311 311 311 311 311 311 311 312 313 314 315 317 317 315 317 318 320 323 324 326 328 327 327 329 329 327 328 329 328 328 328 327 329 330 328 328 327 328 328 329 330 330 330 330 330 330 329 328 328 327 326 325 324 322 322 325 327 325 324 323 323 322
316 316 316 318 319 319 318 316 314 315 314 313 314 316 316 315 313 311 309 309 310 311 311 310 309 308 308 308 308 309 308 309 309 310 310 310 310 310 310 310 311 312 313 314 315 316 318 318 317 321 323 323 324 324 325 328 327 327 330 331 328 328 330 330 328 328 327 328 328 328 328 328 328 327 327 328 328 329 329 328 328 328 327 327 327 326 324 324 324 324 326 327 325 324 324 324 323
316 317 317 317 319 318 316 316 315 315 313 313 314 316 317 315 313 311 310 309 311 312 312 310 309 308 308 308 308 308 308 309 309 309 310 310 310 310 310 311 311 313 314 316 317 318 319 320 321 323 323 323 327 327 325 327 327 326 328 330 329 327 328 328 327 327 327 327 326 326 326 327 328 327 327 328 328 328 328 328 329 328 327 326 325 325 323 323 324 325 325 325 324 323 323 323 322
317 317 318 319 319 318 317 316 316 316 314 313 314 316 318 315 313 312 310 309 311 313 312 310 309 308 307 307 307 307 308 308 309 309 309 309 310 310 310 311 313 314 315 317 318 319 319 320 322 325 325 323 326 328 327 328 329 327 327 328 327 326 326 326 324 324 324 324 324 324 325 325 326 326 327 327 327 328 327 327 328 328 327 326 325 325 325 325 324 324 324 324 323 323 322 321 321
319 318 318 320 319 319 318 315 315 316 314 314 315 316 318 315 313 311 310 310 310 312 312 310 309 308 307 307 307 307 307 307 308 308 309 309 309 310 310 312 314 316 317 318 320 320 320 320 320 323 327 326 325 326 326 327 328 326 326 326 325 325 325 324 323 323 323 323 324 324 324 324 325 325 326 326 327 327 326 326 326 326 326 326 325 325 325 325 324 323 323 323 323 323 322 322 322
319 319 319 319 319 319 318 316 315 315 315 316 316 316 317 316 313 311 310 311 311 312 312 310 309 308 307 307 306 306 306 306 307 308 308 309 310 310 311 313 315 316 317 319 320 320 321 322 321 321 324 326 325 324 323 324 325 324 324 324 323 323 324 323 323 322 322 322 323 323 323 322 323 323 324 324 325 325 325 325 325 324 324 324 324 323 323 323 322 322 322 322 322 321 321 321 321
319 320 319 319 319 318 318 317 316 315 315 316 317 317 317 316 313 312 311 310 311 313 311 310 309 308 307 307 306 306 306 306 307 308 308 309 309 310 312 314 316 317 317 319 320 319 320 321 321 320 322 323 323 323 322 323 324 323 322 322 322 322 322 322 321 321 320 320 320 320 320 320 320 320 321 322 322 323 323 322 322 322 322 322 321 321 321 321 321 320 320 320 320 319 319 319 319
319 319 319 319 318 318 319 318 315 316 316 317 318 318 319 318 314 312 311 310 311 312 310 309 308 307 307 306 306 306 305 305 307 308 308 308 309 309 311 314 316 318 319 319 319 318 319 320 320 320 320 321 321 321 321 321 321 321 321 320 320 320 320 320 320 319 319 318 318 318 318 318 318 318 319 319 319 319 319 320 320 320 320 320 320 320 319 319 319 319 318 318 317 317 317 316 316
318 319 318 318 318 318 319 317 314 315 317 318 319 318 319 319 316 313 311 310 311 311 310 309 309 307 307 306 306 305 304 305 307 308 308 308 309 309 311 314 315 315 317 318 316 318 320 320 320 319 318 319 320 320 319 319 318 317 318 319 319 318 319 318 318 318 317 317 317 317 317 317 317 317 317 317 316 316 315 315 316 317 317 317 317 316 315 315 315 315 315 314 313 312 312 311 310
318 317 317 318 318 318 319 317 314 314 316 317 319 318 318 318 318 314 311 311 311 311 311 310 309 307 307 306 306 305 304 306 307 307 308 308 308 309 311 314 314 314 316 317 316 318 319 319 319 318 318 318 319 318 318 318 317 317 317 318 318 317 317 316 316 316 315 315 314 314 314 315 314 314 314 313 312 311 310 309 309 310 310 310 309 308 307 307 307 308 308 307 307 306 305 305 304
317 317 317 318 318 319 319 316 313 313 315 317 318 318 317 318 317 314 312 312 312 311 311 310 309 307 306 306 305 304 304 305 306 307 307 308 308 310 311 313 314 314 315 317 317 317 317 316 317 317 317 316 317 317 317 317 317 316 316 316 316 315 315 314 314 313 311 310 309 308 309 308 308 308 308 308 307 307 306 306 305 305 305 305 304 304 304 304 303 304 303 303 304 303 302 302 302
317 318 317 318 319 320 319 316 314 313 314 316 317 316 317 318 317 313 311 312 310 308 307 307 307 307 306 305 305 304 304 304 305 306 306 307 308 310 312 313 314 314 316 317 317 315 315 314 315 315 315 315 316 316 316 315 314 313 313 313 312 311 311 310 308 307 306 306 305 305 304 304 304 304 304 305 305 305 305 305 304 304 304 303 303 303 302 302 301 301 301 301 301 301 300 299 300
318 318 318 318 319 319 320 317 315 314 314 314 315 317 319 319 319 314 310 309 308 306 305 305 305 305 305 304 303 303 304 304 304 305 306 307 309 310 312 313 313 314 315 316 315 313 313 312 313 313 313 314 314 314 313 312 311 310 310 309 308 307 307 306 305 304 304 304 303 303 303 303 303 303 302 302 303 303 302 302 302 301 301 301 300 300 299 298 298 297 297 297 297 297 296 295 296
318 319 318 318 319 319 320 319 317 318 319 316 315 321 322 320 321 318 309 307 307 306 306 306 305 304 303 303 303 303 303 303 303 304 305 306 309 311 312 313 313 314 315 314 312 311 310 310 310 310 310 310 310 309 309 308 307 307 306 306 306 305 305 304 304 304 303 303 302 301 301 300 300 300 299 299 299 299 299 299 299 298 298 298 297 297 296 296 296 295 295 295 294 294 293 293 294
319 320 318 318 318 319 320 319 318 321 323 316 314 320 322 320 320 318 311 309 309 306 306 307 305 304 303 303 303 303 303 303 303 304 305 307 309 310 311 312 313 313 313 311 309 308 308 307 307 307 307 306 306 305 305 305 305 305 305 305 304 304 304 303 303 302 302 301 300 299 299 298 298 297 297 297 297 297 297 296 296 296 296 296 296 295 295 295 295 294 294 294 293 293 293 293 293
320 319 318 318 318 319 320 319 319 320 321 316 313 317 320 319 319 316 312 311 310 307 307 307 306 304 304 304 303 303 303 303 303 304 305 306 308 309 310 310 311 310 309 307 306 306 306 305 305 305 304 304 304 304 304 304 304 304 304 304 304 303 303 303 302 301 300 299 298 297 297 296 296 296 296 295 296 295 295 295 295 295 295 295 295 294 294 294 293 293 293 293 292 292 292 291 291
319 316 316 317 318 319 319 319 319 318 319 318 316 316 318 319 318 314 312 313 313 311 308 307 307 305 304 304 303 303 303 303 304 304 305 306 306 307 308 308 308 307 306 305 304 304 304 304 304 304 303 303 303 303 303 303 303 303 303 303 303 302 302 301 300 299 298 297 296 296 295 295 294 294 294 294 294 294 295 295 294 294 294 294 294 293 293 293 292 292 292 292 292 291 291 290 290
316 314 315 316 316 317 317 318 318 317 318 319 319 317 318 320 318 315 313 314 315 314 311 309 307 305 304 304 303 302 302 303 303 304 305 305 306 306 306 306 305 305 304 304 304 304 304 303 303 303 303 303 302 302 302 302 302 302 302 302 302 301 301 300 298 297 296 295 295 294 294 294 294 294 294 293 294 294 293 294 293 293 293 293 293 292 292 292 291 291 291 290 290 290 290 289 289
314 315 316 316 315 315 316 316 316 318 319 319 319 318 318 320 320 318 317 315 316 316 312 309 308 306 304 304 303 302 302 303 303 304 305 305 305 305 305 305 304 304 303 303 303 303 303 303 303 302 302 302 302 302 301 301 301 301 301 301 300 300 299 298 297 296 294 294 294 294 293 293 293 293 293 293 293 293 293 293 293 292 292 292 292 291 291 291 290 290 290 289 289 289 289 289 288
315 317 317 317 317 315 316 316 316 319 322 319 317 317 319 319 320 318 317 315 315 315 312 310 307 306 305 304 303 302 302 303 303 303 304 304 304 304 304 304 303 303 303 303 303 303 302 302 302 302 301 301 301 301 300 300 300 300 300 299 299 298 297 296 295 295 294 294 294 293 293 293 293 293 293 293 293 293 293 292 292 292 292 291 291 291 290 290 290 289 289 289 289 289 288 288 288
315 317 317 319 321 319 319 319 317 320 320 315 313 316 319 319 318 318 316 313 313 313 313 311 308 306 305 304 303 302 302 302 302 303 304 304 304 303 303 303 303 302 302 302 302 302 302 302 301 301 301 300 300 300 299 299 299 298 298 297 297 296 296 295 295 294 294 294 294 293 293 293 293 293 293 293 293 293 292 292 292 292 291 291 290 290 290 289 289 289 289 289 288 289 288 288 288
315 317 318 320 323 323 323 322 320 321 318 311 311 315 317 317 317 316 313 310 309 309 311 310 308 306 305 304 302 301 301 302 302 303 303 303 303 302 302 302 302 302 302 302 302 301 301 301 300 300 300 300 299 299 298 298 298 297 296 296 295 295 295 294 294 294 294 294 293 293 293 293 293 293 293 293 293 292 292 292 292 291 291 291 290 290 289 289 289 289 288 288 288 288 288 288 288
315 317 318 320 323 325 325 323 322 322 316 311 312 315 318 318 315 310 307 306 306 306 308 309 307 306 305 303 302 301 301 302 302 302 302 302 302 302 302 302 301 301 301 301 301 300 300 300 299 299 299 299 298 298 297 297 296 296 295 295 294 294 294 294 294 294 294 293 293 293 293 293 293 293 293 293 292 292 292 292 291 291 290 290 290 289 289 289 289 289 288 288 288 288 288 288 287
315 316 318 319 320 321 320 318 317 317 316 314 313 315 317 315 310 306 306 306 305 305 306 307 307 306 304 303 302 302 301 301 302 302 302 302 301 301 301 301 301 301 301 300 300 300 300 299 299 298 298 298 297 296 296 295 295 294 294 293 293 293 293 293 294 294 293 293 293 293 293 293 293 293 292 292 292 291 291 291 290 290 290 289 289 289 289 289 289 288 288 288 288 288 288 288 287
316 316 317 317 316 317 317 316 313 313 318 318 315 315 316 314 311 307 306 306 305 304 306 307 306 305 304 303 302 301 301 301 302 302 302 301 301 301 301 301 301 301 301 300 300 299 299 299 298 297 297 297 296 295 295 294 294 293 293 293 293 293 293 293 293 293 293 293 292 292 292 292 292 292 291 291 291 290 290 289 289 289 289 288 288 288 288 288 288 288 288 288 288 287 287 287 287
315 316 317 315 314 315 316 318 317 316 319 320 317 316 317 317 316 310 307 308 306 304 305 306 306 305 304 304 302 302 301 301 302 301 301 301 301 301 301 301 301 301 300 300 299 299 299 298 298 297 297 296 295 294 294 293 293 293 293 293 293 293 293 293 293 292 292 292 292 292 292 292 292 291 290 290 289 289 289 288 288 288 288 288 288 288 288 288 287 287 287 287 287 287 287 286 286
313 314 315 315 316 317 316 318 319 320 321 320 318 318 317 318 318 313 310 310 308 306 305 305 305 305 304 304 303 302 301 301 301 301 301 301 301 301 301 301 301 300 299 299 299 299 298 297 297 296 296 295 294 294 293 293 293 293 293 293 293 293 292 292 292 292 292 292 292 292 292 291 291 290 290 289 289 288 288 288 288 287 287 287 287 287 287 287 287 287 287 287 287 286 286 286 286
311 312 314 315 316 317 317 318 318 319 321 321 320 318 317 318 318 316 315 313 310 308 305 304 305 305 304 304 303 302 301 301 301 301 301 301 301 301 301 301 300 299 299 299 298 298 298 297 296 295 295 294 294 293 293 292 292 292 292 292 292 292 292 292 292 291 292 292 292 291 291 290 290 289 289 289 288 288 288 288 287 287 287 287 287 287 287 287 287 287 287 286 286 286 286 285 285
311 312 314 315 314 314 315 317 317 317 319 321 321 320 318 317 316 317 317 315 311 309 307 306 306 305 304 304 303 302 301 301 301 301 301 301 301 301 300 300 300 299 298 298 298 298 297 296 295 295 294 294 293 293 292 292 292 292 292 292 292 292 291 291 291 291 291 291 291 291 290 290 289 289 289 289 288 288 288 287 287 287 287 287 287 287 287 287 287 287 286 286 286 285 285 285 285
313 313 314 315 315 315 316 318 317 315 317 319 319 321 320 316 314 314 315 315 313 310 308 308 307 306 305 304 304 303 302 302 302 302 301 301 301 300 300 300 299 298 298 298 298 297 296 296 295 294 293 293 293 293 292 292 292 292 292 292 291 291 291 291 291 291 291 291 290 290 289 289 289 289 288 288 288 288 287 287 287 287 287 287 287 287 287 287 286 286 286 285 285 285 285 285 285
Wind_Speed
6 5 3 3 4 3 1 3 3 2 1 4 4 2 5 4 2 1 4 3 3 7 8 5 5 5 5 4 6 6 9 11 9 6 5 5 5 4 1 2 2 2 3 10 8 12 13 10 11 10 12 11 10 8 8 7 6 6 4 4 2 2 1 2 3 3 4 6 8 8 9 9 9 9 7 7 7 6 5 4 4 5 5 6 6 7 7 7 7 7 7 7 7 6 5 4 4
6 5 4 4 5 1 1 3 2 3 2 4 3 3 5 2 1 3 6 6 6 6 5 4 3 3 4 4 4 1 8 12 11 10 8 6 6 6 1 2 3 0 4 11 8 11 14 10 11 9 11 11 10 8 7 6 5 5 4 3 1 0 0 1 2 2 3 6 8 8 8 8 8 8 7 6 6 5 5 4 4 5 5 6 6 7 6 6 6 6 6 6 6 6 5 4 4
6 5 4 4 1 2 3 3 2 1 2 4 4 4 2 2 5 6 7 7 7 5 3 3 1 2 5 3 1 2 8 11 10 8 8 8 4 5 2 1 4 1 5 11 8 10 13 11 11 10 11 11 10 9 7 6 5 4 3 2 1 0 1 1 2 2 2 5 7 7 7 8 8 7 6 6 6 5 5 4 5 5 5 5 6 6 6 6 5 5 5 5 5 5 5 4 4
6 4 4 2 2 4 4 3 2 1 2 4 4 5 2 4 6 6 6 5 5 4 4 3 1 3 4 2 4 3 8 10 10 7 6 8 5 3 3 2 4 1 5 11 8 8 11 12 12 10 11 10 9 9 8 7 5 4 3 2 1 0 1 2 2 2 2 4 6 6 7 7 7 7 6 6 6 5 5 4 4 4 4 4 4 5 6 6 6 5 4 4 4 5 5 5 5
6 4 4 1 3 2 2 2 1 2 3 3 4 6 4 6 6 6 6 5 4 4 4 4 2 4 4 7 5 4 7 6 9 7 6 7 6 5 4 3 3 2 4 11 10 7 9 12 13 12 11 10 9 9 8 6 5 4 3 3 2 2 2 2 2 2 2 4 5 6 7 7 7 7 6 6 6 5 5 4 3 2 2 3 3 4 4 5 5 5 5 6 7 8 8 8 8
7 5 4 1 2 1 2 2 1 2 5 4 5 6 5 6 5 5 5 6 4 4 5 5 4 2 4 7 8 10 9 4 5 5 4 4 5 6 6 5 3 3 4 9 10 7 8 10 12 13 11 10 9 8 7 7 6 5 4 3 3 3 4 2 2 2 2 3 4 5 6 7 7 6 6 6 6 6 5 4 3 1 0 1 2 3 4 4 4 6 7 8 10 11 12 11 11
5 2 2 1 1 2 4 1 2 4 4 6 6 6 6 6 4 3 5 5 3 3 4 4 4 3 3 6 7 11 9 6 4 3 3 3 4 5 7 7 4 4 5 7 9 8 9 10 12 12 11 10 10 8 8 7 7 6 5 4 3 4 4 3 2 2 3 3 3 3 5 5 5 6 6 7 6 6 6 4 3 1 0 1 2 4 6 6 7 8 10 11 13 13 14 13 12
4 2 2 3 2 2 3 2 3 3 4 4 6 6 7 6 3 1 3 3 3 3 3 4 4 4 5 5 5 8 8 9 8 6 4 3 4 4 7 8 7 7 6 7 8 9 10 9 11 12 11 10 9 9 8 7 7 7 6 4 4 4 4 4 2 2 3 2 2 2 4 4 3 4 6 7 7 7 6 5 3 2 1 1 3 5 6 8 9 11 12 14 15 14 14 12 10
4 2 4 3 1 2 1 3 3 4 5 4 5 7 6 5 2 1 2 4 4 3 4 5 6 4 4 6 9 8 9 12 10 8 6 4 4 2 6 8 8 9 8 8 8 8 8 8 10 12 11 11 9 9 8 7 7 7 7 5 5 4 4 3 1 2 2 2 1 1 2 2 2 2 4 5 6 6 5 4 3 1 1 2 3 4 6 8 10 11 14 15 15 15 13 11 8
4 2 3 2 1 2 2 2 3 4 5 4 5 7 5 4 2 1 1 4 3 2 4 3 4 4 2 5 9 7 9 10 7 7 6 5 4 2 3 6 7 9 9 9 8 6 8 9 10 11 11 11 10 10 9 8 8 8 7 6 6 5 4 2 0 3 3 3 2 1 1 2 1 1 1 3 4 5 4 2 1 0 1 2 3 5 7 8 10 12 14 16 15 14 11 8 5
3 1 2 3 3 3 2 3 4 4 5 5 6 7 5 3 2 2 1 3 3 1 4 3 2 4 1 4 8 6 6 6 5 5 5 4 3 2 1 4 6 7 9 10 10 8 8 10 11 11 11 11 11 11 10 10 9 8 8 7 6 6 5 3 2 3 4 4 3 1 1 2 2 1 0 1 3 3 2 0 1 1 2 4 5 7 8 10 11 12 14 15 15 12 9 5 3
3 1 2 3 2 1 1 3 5 5 6 5 6 6 4 2 2 1 0 2 2 3 5 5 4 4 4 5 9 7 1 4 5 5 4 3 2 1 1 2 3 5 7 8 10 10 9 10 12 12 12 12 12 12 11 11 10 9 9 8 8 7 6 5 4 4 5 5 4 4 4 3 3 3 1 0 1 1 1 1 2 3 3 4 6 8 9 11 12 13 14 15 14 12 7 3 1
3 1 3 3 1 1 1 2 5 6 5 5 6 5 2 1 1 2 2 1 1 2 4 6 4 4 5 3 10 7 2 6 6 5 4 4 4 3 3 3 3 3 5 6 8 10 10 10 11 11 13 13 13 13 13 13 12 11 10 10 9 8 7 6 5 5 6 6 6 6 5 5 4 4 3 2 1 1 2 3 4 5 5 6 7 8 10 11 12 13 14 15 14 11 6 1 0
2 2 3 1 1 1 0 2 5 5 5 6 5 5 3 1 2 3 4 3 3 4 5 3 1 4 5 2 8 5 4 6 7 5 4 5 5 5 5 5 5 4 4 5 6 8 9 11 10 10 11 12 13 13 13 14 14 12 12 11 10 10 8 8 7 6 6 7 7 7 6 6 5 5 4 3 3 3 4 5 5 6 7 8 9 10 12 13 13 14 14 14 13 11 5 1 1
2 2 3 1 1 3 2 1 4 5 4 8 4 3 3 3 3 2 2 4 4 4 4 2 1 3 2 2 2 1 7 6 8 8 6 5 5 6 6 6 7 6 6 5 6 6 7 9 10 10 10 10 11 11 12 13 14 15 14 13 12 11 10 9 9 7 7 7 8 7 7 6 6 5 5 5 4 4 6 6 5 6 7 8 10 12 14 14 15 14 13 14 13 11 6 1 2
1 2 3 2 2 3 3 2 3 4 4 7 5 2 3 5 2 1 1 4 2 2 4 2 1 2 2 3 4 6 9 9 10 9 7 5 5 5 5 6 7 7 7 7 7 7 6 7 9 10 10 10 10 10 10 11 14 16 16 15 13 13 11 10 10 9 7 7 7 7 7 6 6 6 6 6 5 5 6 6 6 7 8 8 11 13 15 15 15 12 10 13 13 11 8 3 2
0 2 4 3 3 2 4 5 3 2 6 7 5 1 2 4 5 1 2 3 4 2 3 2 2 3 3 4 6 8 10 10 9 7 5 5 4 4 5 5 6 7 7 8 8 8 8 8 8 9 10 11 10 10 11 11 13 14 16 17 16 14 13 12 10 9 8 8 7 7 6 6 7 7 7 7 7 7 7 7 8 9 9 9 11 13 14 14 11 8 9 12 13 12 10 6 3
2 2 3 2 1 2 2 3 3 3 6 6 4 2 3 1 3 1 3 4 5 4 5 4 1 1 2 5 7 9 9 9 7 5 4 4 5 6 7 7 7 7 7 9 9 10 10 10 9 9 10 11 11 11 12 13 13 12 13 16 17 16 14 13 11 9 8 8 8 7 7 6 7 8 8 8 8 8 7 8 8 9 9 9 11 12 12 12 9 6 8 11 13 13 11 8 5
2 2 3 0 3 4 3 3 5 3 4 5 3 3 3 3 3 2 4 4 5 4 7 8 6 5 5 7 7 7 7 5 3 3 3 4 7 8 8 8 8 9 9 10 10 11 12 12 12 10 10 10 10 11 11 12 13 12 11 13 15 16 15 14 12 10 8 9 9 8 8 7 8 9 10 9 8 9 9 10 10 9 10 11 11 11 10 10 9 7 8 11 12 12 12 10 8
1 3 3 3 4 4 4 4 5 4 4 2 2 2 3 3 3 4 6 8 6 0 5 5 5 7 7 8 5 3 3 2 0 2 3 4 6 7 8 8 9 10 11 11 12 12 12 13 13 13 12 11 11 12 11 10 11 12 12 13 14 14 14 13 13 12 9 10 10 9 9 9 9 9 11 9 9 10 10 11 10 9 11 12 10 10 11 9 8 7 8 11 11 12 12 12 11
1 3 2 6 3 3 5 4 5 4 3 1 1 1 3 1 3 6 6 9 2 7 6 2 2 4 5 5 3 2 2 2 3 4 4 4 4 4 5 6 8 9 10 11 12 13 14 14 14 15 15 14 13 12 11 9 8 11 12 14 15 14 13 13 13 12 12 12 12 11 11 12 11 10 11 10 9 9 10 10 10 10 10 10 9 9 10 8 7 8 9 12 13 13 13 14 14
2 1 4 5 1 1 5 4 4 3 1 1 2 2 2 1 5 6 6 7 1 5 3 2 3 3 3 2 0 2 2 3 4 4 4 3 2 2 2 3 5 6 8 9 11 13 14 15 16 16 16 16 15 13 11 9 8 10 10 11 13 14 14 14 12 11 12 13 13 13 13 13 12 11 11 11 10 10 10 10 10 10 8 7 9 8 9 8 6 7 9 11 13 14 14 14 15
2 2 4 2 1 1 5 4 2 1 2 3 3 2 2 5 7 4 4 3 0 1 3 1 1 2 1 0 1 1 1 2 2 2 1 1 1 2 2 3 4 5 6 8 9 11 13 14 15 16 17 17 16 15 11 9 8 8 8 10 10 12 15 16 14 12 13 13 12 12 12 11 11 11 11 12 12 11 11 10 10 10 7 7 10 9 7 6 6 6 7 8 12 14 15 14 14
4 0 4 2 0 1 3 4 3 4 5 4 3 3 6 8 5 3 3 2 4 4 3 1 1 2 2 1 1 1 0 0 0 0 1 2 3 4 4 5 6 6 6 7 8 10 11 12 13 14 16 16 16 14 10 8 9 8 9 10 9 10 13 15 14 12 13 14 12 12 13 11 10 10 10 11 12 11 10 10 11 11 9 9 10 9 6 7 8 8 7 9 12 14 16 15 15
4 1 3 2 2 3 3 4 5 7 7 6 5 7 9 8 3 4 4 3 5 4 1 1 2 3 2 1 1 1 1 2 2 2 3 4 5 5 6 6 7 7 7 7 7 8 9 10 11 11 12 13 13 12 9 7 8 8 8 9 9 12 13 15 15 11 11 14 14 14 15 13 12 11 9 10 11 11 9 9 11 11 8 8 9 8 8 9 9 8 7 9 11 12 14 15 16
0 2 1 2 3 4 4 6 7 8 7 6 7 9 8 5 4 4 5 4 6 4 2 1 3 1 1 2 2 2 2 2 2 3 4 5 6 6 7 7 7 7 7 6 6 6 7 8 10 9 10 10 8 8 8 7 8 11 12 13 13 15 15 16 15 13 11 12 12 14 15 14 13 11 10 11 12 13 11 9 10 9 8 8 9 8 9 9 8 7 7 9 10 9 9 12 15
2 2 4 6 6 5 6 7 7 6 7 8 9 9 4 7 6 4 6 7 6 5 3 2 2 2 4 4 3 3 2 2 2 2 2 3 4 4 5 6 6 6 6 5 4 4 5 6 7 8 10 10 7 8 11 12 14 16 16 15 14 15 16 15 14 14 12 10 10 12 14 13 12 11 11 11 10 13 13 12 12 11 9 10 9 8 9 9 9 9 9 10 10 7 7 10 11
2 4 7 8 8 8 9 9 7 5 5 8 9 7 4 7 6 3 8 9 7 6 4 3 4 4 5 4 3 3 2 2 1 1 2 2 2 2 3 3 4 4 4 4 3 3 2 2 3 6 9 12 13 14 16 16 17 17 16 14 14 14 14 14 14 14 12 10 11 11 12 13 13 12 12 12 11 11 13 13 14 13 11 10 9 9 10 10 10 11 9 10 9 6 7 8 8
3 4 7 7 8 9 9 6 4 5 4 5 7 5 6 10 6 7 9 10 8 7 5 4 4 4 4 3 3 3 2 1 1 0 0 1 2 2 3 2 2 1 1 2 1 1 2 1 4 6 8 11 14 16 17 17 17 17 15 14 15 13 11 11 10 12 12 11 11 10 10 11 12 12 11 12 12 12 12 12 10 11 11 10 10 11 10 9 9 9 9 11 9 7 9 9 9
4 5 5 6 8 7 7 6 4 5 4 7 6 4 6 10 8 9 9 10 10 8 6 5 4 3 3 3 3 4 3 3 2 2 2 2 3 3 3 2 1 1 1 1 2 2 4 5 6 9 8 9 11 12 16 17 16 16 14 13 14 13 12 9 7 8 8 8 9 9 8 9 9 9 9 10 11 11 11 10 8 8 8 9 11 10 8 8 9 9 10 11 10 10 11 11 12
4 4 4 5 6 2 7 6 5 5 5 9 7 5 3 8 9 8 9 11 10 8 7 6 4 3 4 4 3 3 4 4 3 4 3 3 3 3 2 1 2 2 3 4 4 4 6 8 8 8 8 10 12 11 13 13 13 14 12 10 10 9 9 8 6 6 6 6 7 7 7 7 7 7 7 7 7 7 7 8 8 8 7 8 9 8 9 9 9 10 10 10 11 12 12 13 14
4 4 5 5 4 2 7 6 4 3 4 9 8 5 1 8 9 8 9 11 10 8 7 6 5 5 4 4 3 3 4 5 4 4 4 3 3 2 0 2 3 4 5 6 7 6 7 9 10 9 8 10 13 12 11 11 11 12 11 9 7 6 5 4 3 3 2 2 2 3 4 6 7 6 6 6 5 4 4 6 7 7 6 6 7 8 10 10 9 10 10 11 13 13 13 14 15
5 5 6 5 5 4 4 4 3 2 4 9 9 6 2 6 10 8 9 10 11 9 7 6 5 5 5 4 4 3 2 4 4 4 4 3 2 1 1 3 5 6 7 8 9 9 8 8 10 11 10 10 12 11 11 10 8 9 9 7 5 4 4 2 2 2 2 2 3 2 1 1 2 3 5 5 4 4 3 4 6 6 5 5 5 7 8 9 9 9 9 11 12 12 13 14 15
5 5 5 7 7 6 4 3 5 5 5 7 9 9 7 5 12 10 9 10 10 10 8 7 6 5 5 5 4 4 3 4 6 5 5 4 4 3 3 5 7 8 9 11 11 11 11 10 10 12 12 11 10 10 10 9 7 7 7 5 3 4 3 3 3 2 2 2 2 2 3 4 3 2 1 0 2 3 2 3 4 4 5 4 4 5 5 7 7 8 8 9 10 11 12 13 14
6 5 4 6 6 7 7 3 5 7 6 7 8 10 11 5 12 11 10 11 10 10 8 8 7 6 6 5 5 5 4 5 8 7 6 6 5 5 6 8 10 10 11 12 12 11 12 11 11 13 13 11 10 10 11 10 9 8 7 7 6 6 5 5 4 3 2 1 1 2 3 4 4 3 3 3 2 1 1 2 2 3 4 3 3 3 4 5 5 6 6 7 8 9 9 11 11
8 6 6 7 6 6 6 2 5 4 5 8 10 11 12 8 10 11 11 11 10 9 8 8 7 7 6 6 5 6 5 7 9 9 7 7 6 6 8 11 12 13 13 13 12 12 12 12 12 14 14 12 11 10 10 10 8 8 8 8 7 7 7 6 5 3 2 2 2 2 3 3 4 3 3 4 3 3 3 2 2 3 4 3 4 4 4 5 5 6 7 7 8 8 10 11 12
5 6 7 9 8 8 6 4 6 2 4 8 11 12 14 13 8 11 12 11 10 10 10 9 9 8 7 7 6 6 7 9 9 9 8 7 7 7 9 12 13 13 14 12 11 13 15 14 12 11 13 13 12 10 9 9 8 8 9 8 8 9 8 7 5 4 3 4 3 2 1 2 3 3 2 3 3 4 3 2 2 3 3 4 4 5 6 6 7 7 7 8 8 9 10 11 12
7 8 8 8 8 9 6 4 6 4 3 8 11 13 13 14 10 10 13 11 11 12 11 10 10 8 7 7 7 7 8 10 10 10 9 8 8 9 10 13 14 14 15 14 14 16 15 14 12 12 12 12 11 9 9 9 9 9 10 10 10 10 9 7 7 6 6 5 4 4 3 3 3 3 3 3 3 3 3 3 3 2 2 2 3 4 5 6 6 6 5 5 6 8 8 9 9
8 6 6 7 6 8 5 5 6 4 4 6 8 11 11 13 10 11 13 11 10 10 9 8 9 9 8 7 7 8 8 9 10 10 11 10 10 11 12 14 15 16 16 17 17 15 13 12 12 11 10 9 9 9 9 9 10 10 9 10 10 9 9 8 8 8 8 8 8 9 9 9 8 8 8 8 8 7 7 7 8 8 7 7 8 8 8 8 8 8 7 7 7 9 11 12 13
8 6 6 7 6 7 5 3 5 4 5 5 6 8 10 12 8 9 10 10 8 7 6 5 7 7 7 8 8 8 9 9 11 11 12 13 13 13 14 16 18 18 19 18 16 13 12 13 12 12 11 10 11 10 9 9 9 10 10 10 11 11 12 12 11 12 12 12 13 14 14 14 14 14 13 12 11 11 10 10 11 11 11 11 10 10 10 11 11 11 11 11 10 11 13 15 15
8 9 8 8 8 8 7 1 2 5 7 6 6 8 9 12 13 9 7 6 6 6 7 7 8 8 7 10 10 9 9 9 11 13 14 15 16 16 16 17 19 20 20 19 16 14 14 15 14 14 14 13 13 12 11 11 12 12 12 13 14 15 15 15 14 15 15 14 15 15 16 15 14 14 14 13 13 12 11 11 11 11 10 10 10 10 11 11 12 12 13 13 13 13 14 15 15
8 10 12 12 11 10 10 4 1 6 7 6 5 7 5 6 12 10 7 6 7 8 10 10 10 10 9 10 11 12 13 12 11 14 17 18 18 18 17 19 20 21 20 19 18 18 18 18 18 17 17 17 16 16 16 16 15 15 15 15 15 15 16 15 15 15 14 14 14 14 14 14 13 13 13 13 13 12 12 11 11 11 10 10 10 11 11 11 12 12 13 13 13 13 13 13 14
7 4 7 11 11 10 11 7 3 5 5 3 5 7 5 3 6 7 8 7 8 8 10 11 12 11 11 11 10 13 16 17 16 17 19 20 20 20 20 20 21 21 21 21 22 22 22 22 21 21 20 20 19 18 17 16 16 15 14 14 14 14 14 15 15 14 13 13 13 13 13 13 12 12 12 12 12 12 12 11 11 11 11 11 11 11 11 12 13 13 14 14 14 14 13 14 14
5 2 0 5 7 9 9 8 6 6 5 1 5 6 7 7 4 6 7 7 8 9 10 11 13 13 13 12 12 14 17 19 20 20 21 22 23 23 23 23 23 24 24 25 25 25 24 23 22 21 21 20 19 17 16 15 14 13 12 12 12 12 12 13 14 13 12 12 12 12 12 12 11 11 11 11 11 11 11 11 11 12 12 12 12 13 13 14 14 14 14 15 15 15 16 16 16
2 3 2 1 2 6 7 7 7 6 6 5 7 6 5 8 3 6 6 6 8 11 12 13 15 16 15 14 14 17 19 20 21 22 23 25 26 26 26 26 26 27 27 27 26 25 24 22 21 20 19 19 17 16 15 13 12 11 11 10 10 11 12 12 13 12 12 11 11 11 11 10 10 10 11 11 11 11 12 12 12 12 13 13 14 14 15 15 15 15 16 16 17 17 17 16 16
3 6 4 4 1 1 3 6 5 5 7 8 8 9 6 8 4 6 4 5 9 10 11 13 16 17 16 16 17 18 21 23 23 24 26 27 29 28 28 28 28 28 28 27 25 24 22 21 20 19 18 17 16 15 13 12 11 11 10 9 9 10 11 12 12 12 12 11 10 10 10 10 10 10 11 11 12 12 13 13 13 14 14 15 15 15 15 16 16 17 17 17 17 17 17 17 16
8 7 4 4 3 2 3 4 3 5 9 9 11 13 10 7 4 6 4 3 6 7 9 11 15 17 17 17 18 20 24 27 26 27 28 29 30 30 29 29 28 28 27 26 24 22 21 20 18 17 16 16 15 15 13 12 12 11 10 10 9 10 11 11 11 11 11 10 9 9 9 9 10 10 10 11 12 13 13 14 15 15 15 15 16 16 16 16 16 16 16 16 16 16 15 15 15
7 5 4 4 3 3 3 4 4 7 8 5 6 10 12 8 4 4 5 4 4 7 10 13 16 18 19 18 19 22 26 29 29 29 31 31 31 31 30 30 29 27 26 24 22 21 20 18 17 16 16 15 15 14 13 12 12 11 10 10 9 10 10 10 10 10 10 9 8 8 8 8 8 9 10 11 12 13 14 15 15 15 16 16 16 16 16 16 16 15 16 15 15 15 15 15 15
6 6 6 5 4 4 5 5 6 8 5 2 3 4 8 9 8 5 3 7 6 4 6 15 19 20 21 20 19 22 27 29 30 31 32 32 31 31 31 30 29 27 25 23 21 20 19 18 17 15 15 15 15 14 13 12 11 10 10 9 9 9 10 9 9 8 8 7 7 7 7 7 8 9 10 11 13 14 15 16 16 17 17 17 17 17 16 16 16 15 15 15 16 16 16 16 16
9 8 8 7 6 6 7 6 6 7 3 2 2 3 4 6 7 6 2 7 7 6 5 14 21 21 22 21 20 23 28 30 32 33 33 33 32 32 31 30 29 27 25 23 21 20 19 18 17 15 15 15 15 14 13 12 11 10 10 9 9 9 9 8 8 7 7 6 6 5 6 7 8 9 11 12 14 15 16 17 18 18 18 18 18 18 18 17 17 17 17 16 16 16 16 16 16
11 9 8 8 7 7 8 6 6 5 2 1 3 4 5 4 2 2 4 7 6 6 7 12 18 20 21 21 22 26 30 32 34 35 35 34 34 33 32 31 29 27 25 23 21 20 19 18 17 15 14 15 14 13 13 11 11 10 10 10 9 9 9 8 7 6 6 5 4 5 6 7 8 10 11 13 14 15 16 16 17 17 17 17 18 18 18 18 18 18 18 18 18 18 18 18 18
8 7 9 9 6 5 5 1 1 1 0 2 5 4 4 3 3 4 6 6 7 7 8 14 18 19 21 21 24 30 33 34 36 37 36 35 34 34 33 31 29 27 25 23 22 20 19 17 17 15 14 14 14 13 13 12 11 11 11 10 10 9 8 7 6 5 4 4 4 4 6 7 8 10 11 12 13 14 15 15 15 16 16 16 16 16 17 17 17 17 18 18 18 18 19 19 19
6 7 8 4 1 2 3 2 2 0 6 4 6 5 4 2 3 4 7 6 7 7 9 14 17 19 22 21 25 32 35 36 38 38 38 37 36 35 33 31 29 27 26 24 22 20 19 17 16 16 15 14 14 14 13 12 12 12 12 11 10 9 8 7 5 4 3 3 3 4 5 7 8 10 11 12 13 13 14 14 14 14 14 14 15 15 15 16 16 17 17 18 18 18 19 19 20
4 6 6 4 3 2 3 4 2 3 8 5 6 8 7 6 4 4 7 8 8 8 10 13 16 19 21 21 26 34 37 38 39 39 38 38 37 35 34 32 30 28 26 25 23 21 19 17 16 15 15 15 14 14 14 13 13 12 12 11 10 9 8 6 5 4 2 2 2 4 5 7 8 10 11 12 13 13 14 14 14 14 14 15 15 15 15 16 16 16 17 17 18 18 19 19 20
1 1 3 4 3 5 5 5 5 6 8 5 6 9 8 8 5 5 9 11 11 11 11 12 15 19 21 22 26 33 36 37 40 40 39 39 38 36 34 32 31 29 28 26 24 22 20 19 18 16 16 15 15 15 15 14 13 13 12 11 10 9 8 6 5 3 2 1 2 3 5 7 8 9 11 12 13 14 14 15 15 16 16 16 16 16 16 16 16 17 17 18 18 19 19 20 21
1 2 3 3 2 4 6 6 5 5 7 6 5 7 7 8 8 10 13 13 14 14 12 12 16 21 24 24 28 36 39 41 43 42 41 40 39 37 35 34 32 31 29 27 25 23 22 21 20 19 18 17 17 16 16 15 14 13 12 12 11 9 8 7 5 4 2 1 2 4 5 7 8 10 12 13 14 15 16 17 18 18 18 18 18 17 17 17 18 18 18 19 19 20 21 21 22
7 6 7 6 3 1 3 5 5 4 6 6 6 6 4 4 6 10 13 13 15 16 14 13 17 22 24 25 32 41 43 44 45 45 44 42 40 39 37 35 33 32 30 28 27 25 24 23 22 21 20 19 18 17 17 16 15 14 14 13 12 10 9 8 6 4 3 2 3 4 5 7 9 11 12 14 15 17 18 18 19 19 19 19 19 19 19 19 19 19 19 20 20 21 22 23 23
9 9 10 10 8 5 4 6 5 3 4 4 5 8 4 2 1 1 3 6 10 15 15 13 17 24 26 28 36 43 45 46 47 47 45 44 43 41 39 37 35 34 32 30 28 27 26 25 24 22 21 20 19 18 17 17 16 16 15 14 13 12 10 9 7 5 4 3 3 4 6 8 9 11 12 14 15 17 18 19 20 20 20 20 20 20 20 20 20 20 20 21 21 22 23 24 25
Wind_Direction
7 10 31 55 86 80 160 251 244 185 271 94 89 123 84 54 80 107 87 60 101 59 24 15 5 346 330 335 2 32 37 28 25 27 67 51 33 28 355 1 357 306 196 180 193 187 185 195 192 187 178 173 168 167 169 170 169 166 158 155 165 170 164 152 144 131 130 128 127 123 119 116 116 116 107 95 90 82 62 55 43 44 46 37 36 45 54 60 59 52 49 45 41 37 41 47 48
24 29 58 78 97 57 239 235 247 132 157 109 78 62 94 129 128 63 57 42 52 39 13 14 358 351 320 295 297 349 57 47 46 61 74 51 41 25 24 357 4 302 190 174 188 189 181 192 197 193 180 177 175 171 171 173 176 175 178 175 204 272 69 138 143 135 135 134 134 128 122 118 114 112 103 90 89 85 68 61 47 43 44 40 41 49 62 65 61 52 46 41 36 30 28 24 17
27 34 76 83 92 272 254 234 261 159 135 102 91 83 111 127 76 61 53 43 45 20 4 359 322 359 291 245 330 19 73 63 49 67 71 52 56 13 55 21 2 127 186 170 180 188 179 193 199 194 180 177 180 178 179 182 191 195 205 213 244 248 79 92 130 143 141 138 140 132 123 118 113 108 99 89 88 86 73 65 55 46 41 42 41 52 66 63 55 48 40 32 28 21 13 5 356
26 36 96 91 251 233 242 242 296 293 99 99 109 103 98 71 72 66 60 51 42 12 8 341 8 41 327 29 46 38 74 72 49 56 65 44 66 55 92 66 14 101 181 169 176 186 183 199 199 194 183 178 181 183 188 190 203 213 224 234 241 273 63 78 122 156 159 146 143 133 123 117 112 104 96 93 90 88 75 62 58 56 46 45 47 52 57 55 46 35 24 4 349 338 332 329 325
41 54 101 88 266 236 283 273 307 325 48 72 113 110 98 76 74 69 68 70 50 16 2 333 41 75 39 34 15 17 38 63 51 45 65 34 52 88 113 94 52 87 174 173 170 178 196 205 196 193 188 181 184 187 193 198 211 222 230 242 265 308 359 53 107 149 159 152 147 136 127 119 111 100 93 93 92 87 76 61 46 65 57 44 53 44 31 38 28 9 351 331 318 310 308 306 304
46 53 89 63 289 286 270 217 166 86 39 16 104 110 98 80 68 71 92 96 72 39 11 344 12 50 95 65 47 36 17 37 35 13 64 44 55 98 121 113 101 109 161 177 167 176 210 213 199 193 190 186 189 193 198 206 218 229 234 246 272 302 327 9 73 108 129 146 150 143 133 123 108 92 82 78 84 84 74 60 37 8 30 38 38 16 3 9 355 336 328 319 310 304 301 298 295
34 41 109 197 182 245 266 162 84 100 49 13 87 102 93 84 64 90 126 119 116 86 27 17 357 311 111 101 74 46 23 47 38 3 57 54 68 104 127 123 120 127 159 175 168 188 214 215 207 197 191 192 194 200 204 212 221 229 231 242 264 285 309 337 37 65 80 105 125 136 138 125 101 75 59 56 65 70 62 54 51 42 20 8 343 345 345 345 333 326 326 320 314 308 303 299 294
32 1 257 253 175 225 281 99 67 78 82 53 77 79 79 80 61 89 116 97 97 93 45 45 342 307 99 105 91 55 36 53 47 44 51 61 77 115 132 131 134 144 167 173 178 210 223 214 212 204 195 196 200 207 211 217 223 228 227 238 255 264 289 321 32 72 83 108 92 99 137 128 98 58 41 42 46 50 53 54 65 77 25 337 339 349 346 337 331 330 331 328 323 320 313 306 298
359 319 262 256 212 201 235 115 90 85 107 106 98 85 80 80 61 25 105 97 83 78 50 36 342 338 110 113 99 71 43 50 42 43 47 60 67 114 135 139 142 152 170 175 185 217 225 210 217 214 204 201 204 213 215 218 225 230 231 238 249 255 272 306 54 115 124 159 178 53 131 111 79 31 29 36 39 41 45 52 68 71 353 342 339 344 340 329 327 330 333 333 332 329 322 313 304
291 288 283 270 249 189 191 146 117 112 113 111 104 95 97 96 93 38 76 104 83 81 61 15 337 17 126 119 98 76 44 40 29 36 40 52 63 83 139 146 146 155 167 179 189 207 211 204 214 219 217 210 207 215 216 217 221 226 229 236 246 251 255 275 160 150 161 178 196 238 117 95 96 356 16 38 44 39 34 52 95 45 305 305 315 319 321 318 320 327 332 334 337 335 327 324 315
259 240 306 268 233 202 199 153 128 123 121 127 112 94 96 96 151 140 95 103 83 129 68 345 329 23 271 118 96 92 58 21 1 17 25 34 51 52 169 162 154 159 166 182 192 201 206 203 208 214 220 218 214 216 215 217 218 219 226 230 234 238 240 245 230 178 176 188 195 194 175 163 181 213 248 58 51 33 29 73 202 209 263 282 305 311 310 311 316 323 330 335 339 339 332 336 333
278 152 233 250 237 237 58 136 131 126 137 157 130 97 94 114 201 176 160 95 81 160 80 6 352 348 269 140 119 132 80 354 7 359 357 351 353 7 265 207 178 170 172 182 192 202 203 199 204 209 215 217 218 218 215 218 218 217 221 226 230 231 236 237 231 208 189 191 197 193 192 200 202 207 236 4 43 12 345 280 250 247 269 284 305 312 312 314 322 329 331 334 340 340 337 348 358
312 25 249 257 328 342 51 123 130 139 159 156 115 94 116 168 205 10 343 310 45 140 63 13 348 312 283 133 136 150 290 346 5 347 338 310 291 277 259 251 236 206 189 187 196 204 204 199 200 207 213 215 216 218 218 218 218 220 222 226 231 233 238 240 235 224 206 198 200 198 200 208 210 211 233 271 307 305 286 294 281 280 288 294 306 308 312 318 328 334 331 333 339 339 337 351 76
346 346 283 268 7 262 161 139 143 175 165 124 91 91 129 94 45 8 323 304 73 59 24 35 351 291 277 223 149 143 320 333 338 328 319 295 281 267 253 253 249 245 226 204 205 205 208 206 201 206 212 216 217 216 220 221 219 219 224 227 231 234 237 242 241 234 220 210 205 201 206 215 222 227 236 249 263 274 275 287 290 291 294 299 305 305 309 316 325 331 331 332 336 337 331 306 155
21 321 281 225 188 193 195 178 166 210 155 119 95 89 138 102 56 10 335 333 54 53 2 102 191 299 299 316 128 339 312 307 309 307 299 284 275 267 253 252 247 246 246 230 222 212 211 211 210 212 207 212 218 216 219 226 226 223 225 226 228 232 232 236 239 238 232 224 216 210 211 216 229 242 249 247 253 265 268 273 279 284 290 300 305 308 309 311 318 324 332 334 335 337 328 265 173
30 275 257 217 201 196 184 179 194 215 135 116 106 88 180 142 114 287 345 321 323 3 0 65 183 305 325 333 322 304 298 293 297 299 290 276 277 272 254 251 248 248 246 240 236 226 220 214 213 217 212 208 208 211 213 222 231 229 228 226 225 229 231 233 236 240 240 234 227 221 218 221 233 246 256 255 256 262 264 260 261 274 286 299 306 309 310 312 317 319 331 338 337 338 330 293 205
56 249 251 222 201 186 169 174 184 157 117 118 118 76 246 155 142 197 308 273 266 298 53 93 212 230 245 287 294 290 290 291 299 306 289 267 269 269 258 251 245 245 243 242 241 235 232 225 217 215 217 214 205 203 200 210 229 233 233 231 227 229 231 232 236 241 241 239 235 230 228 230 240 248 255 259 259 260 264 259 259 276 285 298 311 313 314 318 321 319 331 338 338 339 335 313 261
266 248 242 237 179 127 122 148 111 109 121 122 112 42 313 249 125 75 300 219 227 259 126 119 142 176 286 307 297 292 295 301 309 310 288 256 245 250 256 251 245 244 242 242 241 240 238 235 231 222 218 218 212 206 198 201 217 229 233 232 231 232 235 237 240 243 242 243 239 232 233 237 246 253 254 254 257 260 266 267 272 281 281 298 319 321 320 322 320 317 330 338 338 337 336 324 297
297 285 245 6 66 78 55 82 86 84 112 114 105 51 325 323 21 356 298 240 240 251 144 135 110 79 353 325 311 306 312 317 318 286 257 237 235 243 250 249 249 248 246 246 243 243 241 240 238 235 230 224 218 214 208 200 203 212 220 226 230 231 234 239 245 245 242 242 239 231 230 233 239 250 254 250 254 263 269 274 278 276 279 300 319 324 320 317 315 315 329 338 336 334 337 336 322
335 291 261 83 80 90 80 89 83 66 78 100 109 60 307 310 341 319 313 296 270 15 99 138 103 56 0 331 327 337 343 340 293 184 183 203 218 229 239 244 248 250 252 251 248 244 242 242 241 239 238 233 226 218 216 207 196 197 206 216 221 225 227 231 240 243 238 236 237 232 227 228 226 239 249 250 257 266 271 274 277 273 278 295 310 321 318 312 317 321 329 338 340 338 340 340 336
323 303 4 84 107 127 111 98 84 72 50 7 57 326 269 250 315 306 309 296 254 87 47 350 356 3 330 320 335 36 59 93 114 128 136 150 176 202 224 238 245 250 251 250 249 245 241 240 239 239 237 235 231 224 217 209 193 189 197 207 212 220 222 222 228 234 235 235 237 236 234 234 229 234 243 247 256 263 266 270 278 277 274 289 306 316 318 322 335 330 324 335 344 343 340 338 338
278 30 56 87 110 132 124 112 90 78 17 322 256 264 275 274 283 283 288 294 57 79 5 304 284 278 284 299 6 80 81 95 99 106 109 114 132 179 216 241 250 253 253 252 249 246 242 239 237 237 237 234 231 228 217 205 195 187 192 202 209 216 220 221 221 227 234 234 234 235 238 238 235 239 243 246 249 254 260 264 272 275 269 284 300 302 308 321 331 321 317 331 339 338 336 335 334
277 110 94 97 27 70 127 140 143 138 240 239 241 271 312 279 265 250 267 295 17 329 312 321 255 220 196 188 123 78 109 108 102 107 95 71 330 306 296 290 282 277 268 264 257 251 248 243 241 237 236 233 230 228 218 206 196 184 192 196 198 209 217 221 220 225 233 234 234 234 239 240 239 242 245 249 248 248 257 261 264 265 260 274 286 286 293 305 300 297 301 314 325 329 330 330 331
282 138 123 121 87 217 145 160 197 198 221 233 242 276 265 259 255 210 206 225 247 269 290 302 93 117 117 98 65 331 280 12 61 273 303 301 306 308 311 313 309 306 298 286 275 265 259 253 249 243 239 233 228 227 215 207 194 182 194 190 190 205 212 216 218 227 229 228 232 232 234 236 239 246 251 252 250 249 253 258 258 254 255 267 271 270 277 286 280 280 286 299 315 324 323 324 327
256 314 117 146 200 214 196 196 218 215 226 234 233 251 250 243 237 206 178 183 236 244 235 169 87 84 94 63 317 301 316 321 320 317 315 313 315 319 323 324 322 318 311 300 289 276 267 260 252 246 239 227 223 222 208 203 189 177 189 189 193 203 206 209 208 207 206 213 223 226 229 229 233 240 249 253 251 247 247 256 257 250 256 263 258 259 270 274 272 273 276 291 308 318 317 319 324
62 359 93 222 226 217 227 237 236 224 226 220 221 242 236 206 203 204 166 185 216 195 178 143 103 92 285 279 276 281 293 283 290 299 303 310 311 316 322 325 324 318 313 303 293 280 266 255 245 235 220 205 203 209 198 188 178 178 189 195 198 200 205 210 212 213 210 216 222 225 230 232 236 237 240 249 250 247 244 253 256 248 247 246 244 251 262 264 263 266 267 277 291 301 307 315 324
28 324 288 266 257 243 230 240 242 229 228 214 226 252 208 165 208 208 159 191 199 156 162 174 156 225 257 255 253 255 261 262 269 265 267 275 278 294 304 311 315 313 311 303 295 286 266 249 236 219 199 177 170 190 189 184 185 188 192 194 200 205 209 211 218 227 229 234 232 231 234 235 246 251 248 248 251 249 245 250 250 242 237 232 232 239 253 256 244 248 260 273 278 280 295 310 323
340 312 291 259 247 246 229 233 235 220 228 214 225 252 164 163 215 168 147 181 176 151 164 183 203 230 244 251 254 254 251 243 236 208 210 221 239 277 298 305 306 302 303 301 303 304 285 247 220 198 181 165 172 189 189 187 187 187 189 189 193 201 211 213 218 225 227 237 241 242 240 237 244 251 252 253 254 250 247 254 249 238 235 232 237 247 258 260 245 244 256 265 267 272 285 294 308
301 287 290 274 254 247 221 207 209 208 207 184 204 236 201 194 188 131 149 172 160 162 172 165 198 232 246 266 288 294 302 314 2 46 248 285 310 322 322 322 319 305 303 310 327 356 42 114 150 146 160 167 178 187 182 184 183 179 185 191 192 194 205 218 223 229 232 233 236 243 245 244 244 244 248 253 255 251 251 262 257 243 240 237 248 258 265 270 255 246 259 265 263 273 280 284 293
276 250 269 293 274 240 175 150 167 192 169 163 194 254 214 185 153 131 154 167 163 174 177 170 186 213 243 254 273 291 302 315 323 313 321 324 321 329 323 335 19 45 69 57 45 58 82 105 129 136 155 162 163 176 177 180 179 177 185 194 198 199 205 214 217 232 246 246 246 249 244 246 248 248 252 253 254 253 256 270 272 260 254 251 257 257 261 277 270 260 268 269 268 279 283 283 287
260 254 236 258 271 200 137 146 178 183 158 168 206 273 219 154 138 142 163 168 173 183 177 177 179 181 228 238 239 265 273 277 286 291 305 309 310 320 324 24 62 68 83 95 90 82 95 109 120 129 152 159 153 161 173 176 174 179 191 197 204 207 208 220 227 231 243 249 253 255 245 244 250 256 264 263 260 260 267 273 275 275 267 263 266 263 266 272 268 262 264 266 271 281 284 286 291
230 253 248 224 241 178 143 156 199 203 158 179 210 270 199 147 144 149 167 178 183 193 183 177 185 188 212 222 219 242 256 260 259 262 272 275 286 304 4 87 89 91 91 95 99 95 101 119 129 123 127 152 161 161 166 172 171 178 191 193 194 193 197 215 220 214 214 223 264 276 263 255 253 256 261 267 270 269 278 273 275 284 275 264 269 277 282 281 274 268 267 275 281 285 292 298 301
215 230 262 247 243 235 167 152 201 212 163 188 210 260 292 142 151 153 163 179 187 200 194 180 191 193 198 208 215 222 237 257 248 235 235 226 224 216 117 110 104 102 101 98 99 102 100 109 130 135 128 137 158 166 170 176 174 179 189 190 183 178 184 163 123 104 81 74 56 47 37 301 256 254 252 254 260 267 283 278 276 283 277 272 279 286 292 297 299 290 284 290 291 292 297 299 298
220 211 248 260 255 251 230 152 158 178 196 215 215 243 271 149 150 165 168 176 190 201 197 187 189 190 196 202 209 207 196 230 236 221 210 199 181 159 132 118 111 108 112 114 114 116 114 111 121 137 140 136 147 159 165 168 166 175 184 175 155 155 156 132 116 103 92 99 74 60 57 55 57 66 85 161 238 252 267 287 292 291 285 287 294 292 288 295 304 300 296 296 295 296 295 293 292
268 244 251 266 246 236 249 211 153 175 202 240 234 240 257 190 154 168 173 178 196 201 191 188 186 187 195 193 199 203 198 221 228 214 198 190 169 157 145 124 118 114 112 118 122 120 123 125 125 129 135 139 147 152 154 154 154 163 165 153 148 149 144 132 123 116 100 84 59 32 31 32 34 41 47 57 46 5 53 27 355 326 310 310 306 298 291 291 293 293 292 292 295 296 295 295 292
295 285 281 282 261 249 258 146 132 182 219 247 251 253 261 235 173 169 174 181 197 198 185 186 187 188 192 187 195 197 197 218 219 206 193 184 167 157 146 131 129 127 121 123 127 125 126 128 128 127 129 134 141 145 146 148 152 159 156 151 152 146 137 131 126 120 107 91 85 61 31 23 29 33 36 46 41 24 26 26 357 316 305 304 302 299 296 295 288 286 287 289 294 294 295 294 290
293 284 274 270 266 268 268 126 122 158 244 254 256 260 263 259 217 172 172 181 194 197 189 192 190 188 192 189 189 190 202 215 208 195 185 173 163 157 147 139 139 136 131 129 125 128 132 130 127 125 124 127 130 130 130 135 141 144 143 143 142 136 132 136 135 130 129 124 117 108 72 56 60 69 63 44 27 15 4 354 331 302 293 292 297 300 301 299 293 293 293 295 301 299 300 302 300
261 266 265 259 254 265 264 133 130 148 236 261 264 262 259 264 250 173 167 185 199 202 197 199 194 186 191 189 186 190 205 210 198 185 176 166 161 157 149 145 143 137 134 133 126 128 131 127 123 121 120 123 124 124 125 126 130 132 136 139 138 139 139 139 134 124 121 119 116 121 129 116 94 91 87 63 42 35 30 29 30 20 8 351 348 350 345 339 331 326 321 324 333 332 336 339 338
253 251 252 257 254 267 255 142 139 165 235 265 270 267 261 265 250 175 178 196 194 195 194 192 189 187 192 189 186 191 198 195 186 181 173 164 160 157 151 148 145 139 137 139 134 132 133 130 130 129 125 125 124 126 128 127 127 131 136 137 137 139 133 126 120 112 106 104 104 104 105 104 101 98 96 92 88 84 80 74 68 64 60 54 49 43 39 34 31 30 29 32 26 13 14 13 14
241 236 241 250 246 260 256 155 142 185 230 278 288 275 268 265 237 172 183 192 169 169 181 182 187 188 190 189 186 185 187 183 178 176 171 166 162 159 154 149 146 141 140 142 140 138 139 140 141 138 133 133 133 133 134 129 124 125 125 124 125 123 118 114 110 105 101 101 100 99 96 95 95 94 93 91 90 87 82 77 70 64 59 56 53 48 46 44 41 41 41 40 36 31 27 21 20
230 228 234 248 247 249 255 234 136 216 229 238 264 276 268 251 230 196 162 164 167 173 185 194 196 194 191 195 192 182 179 178 176 174 169 167 165 161 157 150 147 143 143 146 146 142 140 141 141 139 136 136 138 137 133 126 119 118 117 118 118 115 112 110 107 104 102 100 96 94 92 90 89 88 87 84 83 81 76 73 68 64 59 54 49 43 40 38 35 34 35 34 29 31 32 23 19
240 225 224 240 257 261 263 278 328 277 258 196 212 269 276 238 226 202 148 165 192 181 191 199 193 192 194 199 195 188 182 173 172 175 170 167 164 161 158 154 151 149 150 150 146 140 136 135 133 132 131 129 129 127 124 121 119 118 118 118 116 114 112 111 109 107 103 98 93 90 88 86 83 81 79 76 74 72 70 67 63 58 52 47 42 36 32 28 26 23 22 22 21 22 22 18 17
257 237 217 231 254 263 263 264 241 272 286 147 188 258 278 259 221 176 146 178 190 180 198 198 187 188 189 190 188 188 186 175 171 174 170 165 163 162 161 158 155 153 152 147 141 137 134 132 129 127 126 123 121 119 117 116 116 116 116 116 116 116 116 114 112 108 104 98 94 90 85 80 76 72 71 68 65 62 60 57 53 48 42 37 32 26 22 18 16 14 13 12 11 11 9 8 11
255 25 131 214 242 253 248 246 234 256 290 193 194 237 275 271 226 145 150 179 186 191 203 196 189 189 186 186 182 181 183 179 174 171 167 164 163 163 162 159 156 153 148 143 139 137 134 131 129 126 124 121 119 118 117 116 116 117 118 120 123 123 121 118 115 110 104 100 96 91 85 79 74 67 64 60 57 53 49 45 41 37 32 28 24 19 16 14 11 8 7 4 3 4 3 4 5
241 74 62 159 239 257 241 236 238 253 272 248 200 182 254 264 203 137 163 196 211 207 199 193 191 186 182 183 179 176 178 177 174 169 166 164 162 161 161 158 154 150 145 141 139 137 134 132 129 128 126 124 123 121 122 123 123 125 129 133 134 131 128 122 117 112 107 103 97 91 85 79 72 64 58 52 48 43 39 36 32 27 24 20 16 13 11 8 5 2 0 360 360 360 360 0 0
148 119 97 92 107 237 223 235 242 241 249 248 211 180 224 271 222 165 175 221 231 216 194 187 185 182 180 178 174 175 177 175 172 169 165 162 161 160 159 157 153 148 144 142 140 137 135 134 133 132 132 131 130 129 130 132 134 139 142 144 143 137 130 124 120 116 111 106 99 90 82 73 64 56 50 44 39 35 32 28 24 21 18 15 12 9 6 3 1 359 358 357 357 356 355 355 355
139 144 125 126 160 162 199 232 234 247 249 240 217 198 211 270 253 182 172 228 220 190 173 175 175 175 176 175 172 174 177 174 170 169 166 163 161 160 158 156 152 148 146 144 143 140 139 139 139 140 140 139 138 138 141 144 147 152 152 148 144 136 130 126 123 118 111 105 95 85 74 65 56 48 41 35 31 27 24 20 17 16 13 10 7 4 1 359 357 356 354 353 351 350 350 349 349
155 173 169 169 188 170 209 221 200 244 253 227 206 202 208 231 248 164 120 89 133 154 170 174 170 172 172 172 173 175 177 175 170 169 167 165 163 161 159 156 153 151 149 147 146 145 145 146 147 149 148 145 144 146 152 156 158 158 153 148 141 133 128 125 121 115 109 101 89 79 70 59 49 41 34 27 23 19 16 13 11 8 5 3 1 359 356 354 351 349 347 345 344 343 342 342 341
190 191 183 197 217 201 222 215 201 236 244 124 124 186 214 232 245 235 129 101 106 100 163 171 167 167 168 168 170 173 177 175 172 170 168 167 166 163 160 158 156 155 153 152 151 152 153 153 155 158 155 151 152 156 160 162 161 157 151 146 139 131 127 125 121 117 112 103 90 80 67 54 42 32 24 17 14 11 7 4 2 359 357 355 354 352 350 347 345 343 340 338 337 336 334 334 333
194 192 183 196 213 226 238 223 221 235 219 89 141 176 231 249 247 245 137 97 96 65 102 162 164 164 165 165 166 172 176 176 175 173 171 169 168 166 163 161 160 158 157 157 157 158 159 158 160 164 161 159 160 163 165 165 162 157 152 147 141 136 134 133 130 126 120 110 96 79 58 44 29 19 14 8 5 2 358 355 353 351 349 347 345 343 342 341 339 338 338 336 335 334 332 331 330
196 197 195 207 214 236 248 233 235 236 143 116 172 179 219 216 163 115 99 93 99 90 104 145 156 159 159 160 166 174 178 180 178 175 174 172 171 169 167 165 164 163 162 162 162 163 165 164 165 169 170 167 167 167 168 168 166 161 157 153 148 145 144 144 140 134 124 107 87 64 42 29 18 9 4 0 357 354 350 348 346 343 341 339 337 334 333 332 331 330 330 330 329 329 328 328 328
194 195 208 221 227 249 264 253 252 301 3 196 185 220 251 181 115 113 129 121 114 113 125 142 151 156 157 161 170 179 182 183 181 178 176 176 174 173 171 169 169 168 168 168 169 169 169 169 170 174 178 175 173 173 172 172 171 166 162 159 157 155 153 153 148 137 124 98 69 46 27 15 7 1 357 353 350 346 344 341 339 336 334 331 328 326 323 322 321 320 320 321 322 323 323 324 324
171 189 206 205 8 283 254 209 108 355 275 239 171 221 259 186 169 142 146 149 135 138 149 153 156 159 163 168 175 182 185 185 184 181 180 179 178 176 175 173 173 173 174 174 174 174 175 176 177 178 182 181 178 178 177 178 176 172 169 167 166 166 163 161 155 141 122 91 50 28 14 4 358 354 350 346 344 343 341 339 337 334 331 327 324 322 320 319 318 319 320 320 321 322 322 323 324
153 191 187 118 43 313 262 247 222 220 256 246 172 208 221 205 210 148 157 175 166 165 165 162 164 167 173 176 180 186 188 188 187 184 183 183 181 180 179 178 178 179 180 179 178 180 180 183 184 184 187 186 183 182 182 183 182 180 179 176 175 175 172 170 164 153 132 83 33 12 2 354 350 347 345 344 343 343 341 339 337 334 331 328 326 324 323 323 323 322 322 322 322 323 323 324 325
204 248 167 142 218 222 200 228 245 231 243 252 212 212 217 216 204 154 178 190 180 176 173 171 175 178 181 180 181 188 190 190 190 188 188 187 185 183 183 182 183 184 184 183 183 184 185 186 188 188 190 189 188 189 189 189 189 188 187 184 183 184 182 180 176 169 153 94 5 353 348 345 345 344 344 344 343 342 340 339 337 335 333 331 329 328 326 325 324 323 323 322 323 323 324 325 326
247 291 203 188 245 229 204 210 233 237 240 256 233 210 218 223 202 182 191 190 178 175 177 185 186 184 184 180 182 189 192 193 193 191 191 191 188 187 187 186 188 187 187 187 186 188 189 191 191 190 191 192 193 194 195 195 195 194 194 192 192 192 191 189 187 185 188 249 320 332 336 340 344 344 343 342 341 340 339 338 336 335 333 331 330 329 327 326 325 324 324 324 324 324 325 326 327
186 199 200 193 186 230 262 231 224 238 245 250 247 242 235 203 196 200 196 184 174 175 180 188 188 186 186 184 187 192 194 194 195 194 194 193 191 191 190 190 191 190 190 190 190 192 194 194 195 194 194 196 197 198 200 201 200 198 199 199 199 198 197 196 196 200 219 262 295 318 333 340 343 341 340 339 338 338 337 336 335 333 331 329 328 327 326 325 324 324 324 324 324 324 325 326 327
192 198 197 196 189 181 221 223 207 217 244 247 261 270 264 125 92 244 180 162 167 178 182 180 181 185 187 189 193 195 196 196 197 197 196 195 195 194 192 193 194 193 193 193 194 196 198 198 198 198 197 199 203 204 204 205 205 205 205 204 203 202 200 201 205 215 234 261 288 321 336 339 339 338 338 338 337 337 336 335 333 330 328 327 325 325 324 323 323 322 323 323 323 325 325 326 327